This is the latest recevied weather packets stored in our database for station/object KB3FKJ. If no packets are shown the sender has not sent any weather packets the latest 10 day(s).
| Time | Temp. | Humidity | Pressure | Rain* | Wind** | Luminosity | Snow |
|---|---|---|---|---|---|---|---|
| 1777991970 | 22.22° C | 50% | 1008.2 hPa | 0 mm | - | 117 W/m² | - |
| 1777991668 | 22.22° C | 51% | 1008.4 hPa | 0 mm | - | 141 W/m² | - |
| 1777991365 | 22.22° C | 53% | 1008.2 hPa | 0 mm | - | 121 W/m² | - |
| 1777991062 | 22.22° C | 52% | 1008.3 hPa | 0 mm | - | 130 W/m² | - |
| 1777990760 | 21.67° C | 55% | 1008.3 hPa | 0 mm | - | 377 W/m² | - |
| 1777990457 | 21.67° C | 54% | 1008.3 hPa | 0 mm | - | 220 W/m² | - |
| 1777989850 | 21.67° C | 54% | 1008.3 hPa | 0 mm | - | 195 W/m² | - |
| 1777989547 | 21.67° C | 54% | 1008.2 hPa | 0 mm | - | 195 W/m² | - |
| 1777989244 | 21.11° C | 54% | 1008 hPa | 0 mm | - | 123 W/m² | - |
| 1777988940 | 20.56° C | 56% | 1008 hPa | 0 mm | - | 205 W/m² | - |
| 1777988636 | 20.56° C | 55% | 1008.1 hPa | 0 mm | - | 169 W/m² | - |
| 1777988333 | 20.56° C | 56% | 1008.3 hPa | 0 mm | - | 120 W/m² | - |
| 1777988030 | 20.56° C | 57% | 1008.2 hPa | 0 mm | - | 146 W/m² | - |
| 1777987725 | 20.56° C | 56% | 1008.4 hPa | 0 mm | - | 345 W/m² | - |
| 1777987423 | 20° C | 57% | 1008.1 hPa | 0 mm | - | 331 W/m² | - |
| 1777987120 | 20° C | 57% | 1008.3 hPa | 0 mm | - | 308 W/m² | - |
| 1777986817 | 20° C | 57% | 1008.2 hPa | 0 mm | - | 296 W/m² | - |
| 1777986515 | 20° C | 59% | 1008.4 hPa | 0 mm | - | 66 W/m² | - |
| 1777986213 | 20° C | 59% | 1008.4 hPa | 0 mm | - | 267 W/m² | - |
| 1777985910 | 19.44° C | 59% | 1008.4 hPa | 0 mm | - | 260 W/m² | - |
| 1777985607 | 19.44° C | 62% | 1008.4 hPa | 0 mm | - | 239 W/m² | - |
| 1777985303 | 18.89° C | 61% | 1008.5 hPa | 0 mm | - | 224 W/m² | - |
| 1777984994 | 18.89° C | 64% | 1008.5 hPa | 0 mm | - | 208 W/m² | - |
| 1777984685 | 18.33° C | 65% | 1008.5 hPa | 0 mm | - | 56 W/m² | - |
| 1777984382 | 18.33° C | 68% | 1008.7 hPa | 0 mm | - | 84 W/m² | - |
* Rain latest hour (hover to see other rain measurements)
** Current wind speed in m/s (hover to see current wind gust speed)